Location: Pedholt
(56.0260°N, 10.2097°E)
Time: 21:27:56
(UTC+00:00)

SR - Pass Details

Date: 27 July 2021
Orbit: 581 x 874 km, 66.7° (Epoch: 26 September)

Event Time Altitude Azimuth Distance (km) Brightness Sun altitude
Rises 09:39:00 0° 266° (W) 3,392 ? 48.0°
Reaches altitude 10° 09:41:48 10° 276° (W) 2,423 ? 48.3°
Maximum altitude 09:46:46 32° 339° (NNW) 1,324 ? 48.7°
Drops below altitude 10° 09:51:26 10° 43° (NE) 2,260 ? 49.1°
Sets 09:53:58 0° 54° (NE) 3,132 ? 49.3°
